Stations météo

réclame
Mon MeteoGroup
Boulmer, Grande-Bretagne (3240): Température de l'air & dewpoint: 16.10.2017 12:00:00 - 22.10.2017 12:00:00 (BST)Boulmer, Grande-Bretagne (3240): Vitesse du vent & gusts: 16.10.2017 12:00:00 - 22.10.2017 12:00:00 (BST)Boulmer, Grande-Bretagne (3240): Direction du vent: 16.10.2017 12:00:00 - 22.10.2017 12:00:00 (BST)Boulmer, Grande-Bretagne (3240): reduced air pressure: 16.10.2017 12:00:00 - 22.10.2017 12:00:00 (BST)Boulmer, Grande-Bretagne (3240): visibility: 16.10.2017 12:00:00 - 22.10.2017 12:00:00 (BST)Boulmer, Grande-Bretagne (3240): Ensoleillement: 16.10.2017 12:00:00 - 22.10.2017 12:00:00 (BST)Boulmer, Grande-Bretagne (3240): Quantités de précipitations: 16.10.2017 12:00:00 - 22.10.2017 12:00:00 (BST)
Date & Time tt [°C] td [°C] ff [km/h] ff [knt] fx [km/h] fx [knt] dd ppp [hPa] vv [km] sd [min] rr [mm]
22.10.2017 12:00:00 13,8 9,1 37 20 54 29 W 1000,9 10 54 0,0
22.10.2017 11:00:00 12,9 8,8 35 19 55 30 W 1000,1 10 36 0,0
22.10.2017 10:00:00 12,2 8,6 37 20 54 29 W 999,1 10 48 0,0
22.10.2017 09:00:00 11,7 8,4 37 20 52 28 W 998,1 10 6 0,0
22.10.2017 08:00:00 11,4 8,6 35 19 46 25 W 996,8 10 0 0,0
22.10.2017 07:00:00 11,2 8,9 24 13 - - W 995,8 10 0 0,0
22.10.2017 06:00:00 10,9 8,9 22 12 - - W 994,9 10 0 0,0
22.10.2017 05:00:00 10,8 8,7 26 14 - - W 994,0 10 0 0,0
22.10.2017 04:00:00 10,6 8,9 18 10 - - WSW 993,4 10 0 -
22.10.2017 03:00:00 11,0 9,5 26 14 - - W 992,6 10 0 0,0
22.10.2017 02:00:00 11,4 9,9 22 12 - - W 991,9 10 0 0,0
22.10.2017 01:00:00 11,0 9,7 18 10 - - W 991,2 10 - 0,0
22.10.2017 00:00:00 11,3 10,1 28 15 - - W 990,4 10 0 0,2
21.10.2017 23:00:00 11,2 10,2 26 14 - - W 989,5 10 0 0,0
21.10.2017 22:00:00 11,1 10,5 11 6 - - WNW 988,6 10 0 0,2
21.10.2017 21:00:00 11,6 10,7 4 2 - - NW 988,0 6 0 0,0
21.10.2017 20:00:00 11,7 10,5 16 9 - - ESE 987,7 10 0 0,2
21.10.2017 19:00:00 11,4 10,7 29 16 - - ESE 987,7 9 0 1,8
21.10.2017 18:00:00 11,4 10,5 31 17 48 26 SE 988,2 6 0 1,6
21.10.2017 17:00:00 12,5 9,7 37 20 52 28 SE 988,7 10 0 0,0
21.10.2017 16:00:00 13,3 10,1 26 14 - - SE 989,2 10 12 0,0
21.10.2017 15:00:00 13,8 10,7 34 18 - - SE 989,7 10 6 0,0
21.10.2017 14:00:00 13,3 10,4 26 14 46 25 SE 990,4 10 6 0,0
21.10.2017 13:00:00 13,1 10,1 34 18 46 25 SSE 990,9 10 18 0,0
21.10.2017 12:00:00 13,3 10,5 29 16 - - SSE 991,5 10 18 0,0
21.10.2017 11:00:00 13,6 11,4 26 14 - - SSE 991,7 10 54 0,0
21.10.2017 10:00:00 12,7 11,5 21 11 - - SSE 992,3 10 36 0,0
21.10.2017 09:00:00 12,1 11,4 26 14 - - SSE 992,8 10 0 0,0
21.10.2017 08:00:00 12,0 11,2 22 12 - - SSE 992,9 8 0 0,0
21.10.2017 07:00:00 12,0 11,1 24 13 - - SSE 993,8 10 0 -
21.10.2017 06:00:00 11,6 10,9 24 13 - - SSE 994,3 10 0 -
21.10.2017 05:00:00 11,4 11,1 35 19 50 27 SSE 994,8 10 0 -
21.10.2017 04:00:00 11,1 10,8 31 17 48 26 SSE 995,8 5 0 -
21.10.2017 03:00:00 10,8 10,3 37 20 52 28 SSE 996,7 4,1 0 -
21.10.2017 02:00:00 11,4 9,1 34 18 50 27 SSE 997,6 6 0 -
21.10.2017 01:00:00 11,0 8,2 24 13 - - SSE 998,8 10 - -
21.10.2017 00:00:00 11,3 8,5 28 15 - - SSE 999,7 10 0 -
20.10.2017 23:00:00 11,3 9,3 18 10 - - SSE 1000,4 10 0 -
20.10.2017 22:00:00 11,6 10,2 13 7 - - S 1001,2 10 0 -
20.10.2017 21:00:00 12,1 10,6 11 6 - - SW 1001,5 10 0 0,0
20.10.2017 20:00:00 12,6 11,9 8 4 - - SSW 1002,1 10 0 0,0
20.10.2017 19:00:00 12,5 11,8 8 4 - - S 1002,1 7 0 0,0
20.10.2017 18:00:00 12,5 11,8 8 4 - - SSE 1001,9 8 0 0,0
20.10.2017 17:00:00 12,8 11,9 5 3 - - ESE 1001,7 10 0 0,0
20.10.2017 16:00:00 13,1 11,9 4 2 - - ESE 1001,7 8 0 0,0
20.10.2017 15:00:00 13,5 12,2 8 4 - - NE 1001,3 9 24 0,0
20.10.2017 14:00:00 13,5 12,5 11 6 - - N 1000,9 9 12 0,0
20.10.2017 13:00:00 13,4 12,6 5 3 - - N 1000,6 9 0 0,0
20.10.2017 12:00:00 13,6 12,7 9 5 - - NE 1000,0 10 0 0,0
20.10.2017 11:00:00 14,0 13,2 4 2 - - ESE 999,0 5 6 0,0
20.10.2017 10:00:00 14,2 13,4 13 7 - - NW 998,3 10 36 0,0
20.10.2017 09:00:00 13,0 13,0 5 3 - - SW 997,5 4,2 6 0,0
20.10.2017 08:00:00 12,5 12,5 5 3 - - SSW 997,2 3,6 0 0,0
20.10.2017 07:00:00 12,3 12,3 9 5 - - S 996,5 4,0 0 0,6
20.10.2017 06:00:00 12,4 12,4 9 5 - - SE 996,0 2,8 0 1,6
20.10.2017 05:00:00 12,5 12,4 8 4 - - S 995,9 2,1 0 1,0
20.10.2017 04:00:00 12,5 12,4 11 6 - - SSE 995,8 2,2 0 1,4
20.10.2017 03:00:00 12,3 12,0 9 5 - - SE 996,0 5 0 1,6
20.10.2017 02:00:00 12,8 12,1 11 6 - - S 996,0 6 0 0,2
20.10.2017 01:00:00 12,9 12,9 15 8 - - S 995,8 3,2 - 0,0
20.10.2017 00:00:00 12,9 12,9 15 8 - - S 995,7 1,7 0 0,2
19.10.2017 23:00:00 12,8 12,8 21 11 - - SSE 995,6 1,8 0 0,2
19.10.2017 22:00:00 12,5 12,5 15 8 - - SSE 995,9 1,6 0 0,2
19.10.2017 21:00:00 12,4 12,4 18 10 - - ESE 996,4 1,9 0 0,0
19.10.2017 20:00:00 12,4 12,4 18 10 - - E 997,5 0,5 0 1,4
19.10.2017 19:00:00 11,9 11,8 9 5 - - E 998,7 2,0 0 5,2
19.10.2017 18:00:00 12,2 12,1 16 9 - - ESE 999,8 2,4 0 1,0
19.10.2017 17:00:00 12,3 12,0 13 7 - - ESE 1000,2 2,1 0 1,6
19.10.2017 16:00:00 12,6 11,9 21 11 - - SSE 1001,2 5 0 0,0
19.10.2017 15:00:00 12,6 11,7 18 10 - - SSE 1002,0 5 0 0,0
19.10.2017 14:00:00 12,7 11,6 18 10 - - SSE 1002,6 6 0 0,0
19.10.2017 13:00:00 12,4 11,5 18 10 - - SE 1003,4 6 0 0,0
19.10.2017 12:00:00 12,2 11,2 15 8 - - S 1004,1 7 0 0,0
19.10.2017 11:00:00 11,5 10,9 16 9 - - SSE 1004,3 7 0 0,0
19.10.2017 10:00:00 11,5 11,3 15 8 - - S 1004,5 4,7 0 0,0
19.10.2017 09:00:00 10,9 10,8 11 6 - - S 1004,8 3,4 0 0,0
19.10.2017 08:00:00 11,0 11,0 9 5 - - S 1004,8 3,7 0 0,0
19.10.2017 07:00:00 11,2 11,1 13 7 - - S 1005,0 3,2 0 0,0
19.10.2017 06:00:00 11,6 11,5 11 6 - - S 1005,7 2,5 0 0,0
19.10.2017 05:00:00 11,8 11,7 18 10 - - SE 1006,1 2,6 0 1,0
19.10.2017 04:00:00 11,5 11,2 21 11 - - SE 1006,9 3,0 0 0,0
19.10.2017 03:00:00 11,5 10,8 24 13 - - SSE 1007,7 10 0 0,0
19.10.2017 02:00:00 11,5 10,3 26 14 - - SSE 1008,3 10 0 0,2
19.10.2017 01:00:00 11,6 10,4 29 16 - - SE 1008,4 10 - 0,0
19.10.2017 00:00:00 11,5 10,5 24 13 - - SE 1009,3 10 0 0,0
18.10.2017 23:00:00 11,4 10,2 24 13 - - SE 1009,7 10 0 0,0
18.10.2017 22:00:00 11,2 10,1 24 13 - - SE 1010,4 10 0 0,0
18.10.2017 21:00:00 11,1 9,7 22 12 - - SE 1010,7 10 0 0,0
18.10.2017 20:00:00 11,0 9,8 22 12 - - ESE 1011,2 10 0 0,0
18.10.2017 19:00:00 10,7 10,1 21 11 - - ESE 1011,6 10 0 0,0
18.10.2017 18:00:00 10,5 9,7 18 10 - - E 1012,0 10 0 0,0
18.10.2017 17:00:00 11,1 9,2 16 9 - - E 1012,2 10 0 0,0
18.10.2017 16:00:00 11,3 9,0 16 9 - - E 1012,9 10 0 0,0
18.10.2017 15:00:00 11,5 9,2 16 9 - - E 1013,2 10 24 0,0
18.10.2017 14:00:00 11,8 9,2 16 9 - - E 1013,4 10 30 0,0
18.10.2017 13:00:00 11,9 9,5 16 9 - - ENE 1014,1 10 12 0,0
18.10.2017 12:00:00 11,6 9,5 18 10 - - ENE 1014,5 10 6 0,0
18.10.2017 11:00:00 11,8 9,1 16 9 - - E 1014,7 10 12 0,0
18.10.2017 10:00:00 11,4 9,2 13 7 - - ENE 1014,9 10 0 0,0
18.10.2017 09:00:00 11,0 9,2 13 7 - - ENE 1014,9 10 0 0,0
18.10.2017 08:00:00 10,5 8,7 11 6 - - NE 1014,6 10 0 0,0
18.10.2017 07:00:00 10,5 8,5 13 7 - - E 1014,4 10 0 0,0
18.10.2017 06:00:00 10,8 9,5 11 6 - - ENE 1014,6 10 0 0,0
18.10.2017 05:00:00 10,8 9,2 13 7 - - ENE 1014,6 10 0 0,0
18.10.2017 04:00:00 11,0 9,4 13 7 - - NE 1014,8 10 0 0,0
18.10.2017 03:00:00 10,9 9,8 11 6 - - NNE 1015,1 10 0 0,0
18.10.2017 02:00:00 10,8 9,9 9 5 - - N 1015,2 10 0 0,0
18.10.2017 01:00:00 10,7 10,1 8 4 - - NNW 1015,1 10 - 0,0
18.10.2017 00:00:00 10,5 10,0 5 3 - - NW 1014,8 10 0 0,2
17.10.2017 23:00:00 10,4 9,9 13 7 - - NW 1014,7 4,1 0 0,6
17.10.2017 22:00:00 11,2 9,0 8 4 - - WNW 1014,1 5 0 0,0
17.10.2017 21:00:00 11,8 8,3 18 10 - - W 1013,2 10 0 0,0
17.10.2017 20:00:00 11,5 8,3 15 8 - - WSW 1012,9 10 0 0,0
17.10.2017 19:00:00 12,3 8,2 21 11 - - W 1012,0 10 0 0,0
17.10.2017 18:00:00 12,7 8,9 24 13 46 25 WSW 1011,2 10 24 0,0
17.10.2017 17:00:00 13,8 9,2 26 14 54 29 WSW 1010,7 10 48 0,0
17.10.2017 16:00:00 14,6 9,5 28 15 57 31 WSW 1009,9 10 36 0,0
17.10.2017 15:00:00 13,5 9,1 35 19 59 32 SW 1009,5 10 24 0,0
17.10.2017 14:00:00 13,5 9,2 42 23 61 33 SW 1008,8 10 18 0,0
17.10.2017 13:00:00 12,9 9,2 34 18 65 35 SW 1009,0 10 18 0,0
17.10.2017 12:00:00 12,4 9,2 44 24 78 42 SW 1007,5 10 0 0,0
17.10.2017 11:00:00 12,6 8,7 52 28 78 42 SW 1006,6 10 12 0,0
17.10.2017 10:00:00 12,1 8,7 46 25 70 38 SW 1006,1 10 0 0,0
17.10.2017 09:00:00 11,8 8,6 44 24 72 39 SW 1005,1 10 0 0,0
17.10.2017 08:00:00 11,8 8,5 41 22 78 42 SW 1004,5 10 0 0,0
17.10.2017 07:00:00 11,8 8,0 54 29 96 52 SW 1002,4 10 0 0,0
17.10.2017 06:00:00 12,2 7,9 52 28 93 50 SW 1001,4 10 0 0,0
17.10.2017 05:00:00 12,2 7,6 59 32 91 49 SW 1000,0 10 0 0,0
17.10.2017 04:00:00 12,9 7,8 55 30 89 48 SW 999,4 10 0 0,0
17.10.2017 03:00:00 13,1 9,2 48 26 94 51 SSW 999,2 10 0 0,0
17.10.2017 02:00:00 13,6 9,4 52 28 81 44 SSW 999,0 10 0 0,0
17.10.2017 01:00:00 13,3 9,1 50 27 80 43 SSW 999,1 10 - 0,0
17.10.2017 00:00:00 13,8 8,8 50 27 76 41 S 999,8 10 0 0,0
16.10.2017 23:00:00 13,7 8,6 44 24 67 36 S 1000,5 10 0 0,0
16.10.2017 22:00:00 14,0 8,0 41 22 70 38 S 1000,5 10 0 0,0
16.10.2017 21:00:00 14,2 7,9 39 21 70 38 S 1000,8 10 0 0,0
16.10.2017 20:00:00 15,0 7,9 39 21 61 33 S 1001,4 10 0 0,0
16.10.2017 19:00:00 14,7 8,5 34 18 48 26 S 1001,9 10 0 -
16.10.2017 18:00:00 12,3 12,3 13 7 - - SE 1002,1 2,4 0 0,0
16.10.2017 17:00:00 12,9 12,9 13 7 - - SSE 1003,2 1,7 0 0,0
16.10.2017 16:00:00 12,9 12,9 24 13 - - SE 1004,6 0,2 0 0,0
16.10.2017 15:00:00 12,8 12,8 24 13 - - SE 1006,2 0,2 0 0,0
16.10.2017 14:00:00 12,7 12,7 21 11 - - SE 1007,6 0,2 0 0,0
16.10.2017 13:00:00 12,5 12,3 21 11 - - ESE 1009,3 2,3 0 0,2
16.10.2017 12:00:00 12,3 12,1 15 8 - - ENE 1010,5 3,1 0 0,2

tt = Température de l'air
td = dewpoint
ff = Vitesse du vent
fx = gusts
dd = Direction du vent
ppp = reduced air pressure
vv = visibility
sd = Ensoleillement
rr = Quantités de précipitations

stations d'obs. à proximité